#timestamp,LO_Frequency,Hit,StdDev 
1523556015.7,286047001.1,N
1523556035.6,286047000.4,N
1523556055.4,286047002.6,N
1523556075.3,286047002.8,N
1523556095.1,286047001.6,N
1523556096.0,286047001.6,N
1523556115.8,286047002.5,N
1523556135.7,286047000.5,N
1523556155.5,286046999.9,N
1523556175.3,286047000.0,N
1523556195.2,286047000.6,N
1523556215.0,286046999.8,N
1523556215.9,286046999.8,N
1523556235.8,286047000.7,N
1523556255.6,286047000.0,N
1523556275.4,286047002.7,N
1523556295.3,286047002.4,N
1523556315.1,286047001.5,N
1523556335.9,286047003.6,Y
1523556355.7,286047004.1,P
1523556375.5,286047002.7,N
1523556395.4,286047001.7,N
1523556415.2,286046999.8,N
1523556435.0,286046999.9,N
1523556435.9,286046999.9,N
1523556455.8,286047002.1,N
1523556475.6,286047002.2,N
1523556495.5,286047002.4,N
1523556515.3,286047000.2,N
1523556535.1,286046999.9,N
1523556555.9,286047002.3,N
1523556575.7,286047000.0,N
1523556595.5,286047000.8,N
1523556615.4,286046999.3,N
1523556635.2,286046998.7,N
1523556655.1,286046998.4,N
1523556656.0,286046998.4,N
1523556675.8,286047000.3,N
1523556695.6,286046998.1,N
1523556715.5,286046998.9,N
1523556735.3,286047000.7,N
1523556755.1,286047000.9,N
1523556775.9,286046998.5,N
1523556795.7,286046998.8,N
1523556815.6,286046998.7,N
1523556835.4,286046998.6,N
1523556855.2,286047000.8,N
1523556875.1,286046998.2,N
1523556876.0,286046998.2,N
1523556895.8,286046998.6,N
1523556915.6,286046998.3,N
1523556935.5,286046998.2,N
1523556955.3,286046998.3,N
1523556975.2,286046999.5,N
1523556995.9,286046999.4,N
1523557015.7,286046999.2,N
1523557035.6,286046998.5,N
1523557055.4,286046999.6,N
1523557075.2,286046998.6,N
1523557095.1,286046998.8,N
1523557096.0,286046998.8,N
1523557115.8,286046999.5,N
1523557135.7,286046998.9,N
1523557155.5,286046998.3,N
1523557175.3,286046998.6,N
1523557195.2,286047000.3,N
1523557215.0,286047002.6,Y
1523557215.9,286047002.6,P
1523557235.8,286047001.8,N
1523557255.6,286047004.4,N
1523557275.4,286046999.8,N
1523557295.3,286047000.1,N
1523557315.1,286047002.7,N
1523557335.8,286047000.2,N
1523557355.7,286046999.9,N
1523557375.5,286046999.7,N
1523557395.4,286047002.3,N
1523557415.2,286047001.6,N
1523557435.0,286047001.7,N
1523557435.9,286047001.7,N
1523557455.8,286047004.2,N
1523557475.6,286047005.7,Y
1523557495.4,286047001.7,P
1523557515.3,286047002.4,P
1523557535.1,286047002.6,P
1523557555.9,286047002.5,Y
1523557575.7,286046999.0,P
1523557595.5,286046996.5,N
1523557615.4,286046998.7,N
1523557635.2,286047000.9,N
1523557655.1,286047001.2,N
1523557656.0,286047001.2,N
1523557675.8,286046998.7,N
1523557695.6,286046998.6,N
1523557715.5,286047001.2,N
1523557735.3,286046994.9,Y
1523557755.1,286046997.0,P
1523557775.9,286046996.9,N
1523557795.7,286046996.7,N
1523557815.6,286046997.7,N
1523557835.4,286046997.7,N
1523557855.2,286046997.9,N
1523557875.1,286046997.1,Y
1523557876.0,286046997.1,P
1523557895.8,286047000.7,N
1523557915.6,286047002.1,N
1523557935.5,286046999.7,N
1523557955.3,286047002.8,N
1523557975.2,286047000.7,N
1523557995.9,286047000.6,N
1523558015.7,286047002.4,N
1523558035.6,286047001.9,N
1523558055.4,286047001.9,N
1523558075.2,286047002.6,N
1523558095.1,286047002.4,N
1523558096.0,286047002.4,N
1523558115.8,286047002.1,N
1523558135.7,286047001.5,N
1523558155.5,286047004.1,N
1523558175.3,286047001.3,N
1523558195.2,286047001.9,N
1523558215.0,286047004.0,N
1523558215.9,286047004.0,N
1523558235.8,286047003.9,N
1523558255.6,286047003.9,N
1523558275.4,286047003.9,N
1523558295.3,286046999.7,N
1523558315.1,286047002.1,N
1523558316.0,286047002.1,N
1523558335.8,286047000.2,N
1523558355.7,286047000.6,N
1523558375.5,286047002.5,N
1523558395.3,286047001.4,N
1523558415.2,286047004.3,N
1523558435.0,286047003.7,N
1523558435.9,286047003.7,N
1523558455.8,286047002.0,N
1523558475.6,286047001.1,N
1523558495.4,286047001.2,N
1523558515.3,286047001.0,N
1523558535.1,286046998.9,N
1523558555.9,286046999.3,N
1523558575.7,286046999.2,N
1523558595.5,286046998.1,N
1523558615.4,286047002.8,N
1523558635.2,286046999.8,N
1523558655.0,286047000.6,N
1523558655.9,286047000.6,N
1523558675.8,286046999.4,N
1523558695.6,286046998.5,N
1523558715.5,286047000.3,N
1523558735.3,286047000.8,N
1523558755.1,286047000.3,N
1523558775.9,286047000.7,N
1523558795.7,286047000.7,N
1523558815.5,286047002.1,N
1523558835.4,286047001.6,N
1523558855.2,286047003.2,N
1523558875.1,286047005.9,Y
1523558876.0,286047005.9,P
1523558895.8,286047001.3,N
1523558915.6,286047001.7,N
1523558935.5,286047004.3,N
1523558955.3,286047003.6,N
1523558975.2,286047004.2,N
1523558995.9,286047002.2,N
1523559015.7,286047002.8,N
1523559035.6,286047002.6,N
1523559055.4,286047004.4,Y
1523559075.2,286047001.2,P
1523559095.1,286046998.2,N
1523559096.0,286046998.2,N
1523559115.8,286047000.9,N
1523559135.7,286046998.4,N
1523559155.5,286046997.0,N
1523559175.3,286046997.9,N
1523559195.2,286046995.2,N
1523559215.0,286046997.5,N
1523559215.9,286046997.5,N
1523559235.8,286046996.6,N
1523559255.6,286046997.1,N
1523559275.4,286046999.6,N
1523559295.3,286046997.2,N
1523559315.1,286046997.0,N
1523559335.8,286046996.6,N
1523559355.7,286046999.0,N
1523559375.5,286046999.0,N
1523559395.4,286046999.4,N
1523559415.2,286046998.6,N
1523559435.0,286046999.3,N
1523559435.9,286046999.3,N
1523559455.8,286046997.0,N
1523559475.6,286046996.9,N
1523559495.4,286046999.6,N
1523559515.3,286046999.2,N
1523559535.1,286046998.5,N
1523559555.9,286047000.8,N
1523559575.7,286046998.4,N
1523559595.5,286046998.5,N
